Weather History for KBWD - November, 2013

Change the Weather History Date:

Sunday, November 10, 2013

  Actual Average (KABI) Record (KABI)
Temperature  
Mean Temperature 56 °F 57 °F  
Max Temperature 68 °F 69 °F 85 °F (1962)
Min Temperature 44 °F 45 °F 18 °F (1950)
Degree Days  
Heating Degree Days 9 9  
Month to date heating degree days 74  
Since 1 July heating degree days 178  
Cooling Degree Days 0 1  
Month to date cooling degree days 12  
Year to date cooling degree days 2401  
Growing Degree Days 6 (Base 50)    
Moisture  
Dew Point 54 °F    
Average Humidity 91    
Maximum Humidity 100    
Minimum Humidity 64    
Precipitation  
Precipitation 0.00 in 0.05 in 0.68 in (1920)
Month to date precipitation 0.58  
Year to date precipitation 22.76  
Sea Level Pressure  
Sea Level Pressure 30.26 in    
Wind  
Wind Speed 3 mph (SE)    
Max Wind Speed 12 mph    
Max Gust Speed -    
Visibility 8 miles    
Events Fog    
T = Trace of Precipitation, MM = Missing Value Source: NWS Daily Summary

Daily Weather History Graph

Daily Weather History Graph

Search for Another Location

Airport or City:

Trip Planner

Search our weather history database for the weather conditions in past years. The results will help you decide how hot, cold, wet, or windy it might be!

Date:

Astronomy

Nov. 10, 2013 Rise Set
Actual Time 7:00 AM CST 5:39 PM CST
Civil Twilight 6:34 AM CST 6:04 PM CST
Nautical Twilight 6:05 AM CST 6:34 PM CST
Astronomical Twilight 5:36 AM CST 7:02 PM CST
Moon 1:22 PM CST (11/10) 12:06 AM CST (11/10)
Length of Visible Light 11h 30m
Length of Day
10h 39m
First Quarter, 56% of the Moon is Illuminated
Nov 10
First Quarter
Nov 17
Full
Nov 25
Last Quarter
Dec 2
New
Dec 9
First Quarter

Hourly Weather History & Observations

Time (CST) Temp. Dew Point Humidity Pressure Visibility Wind Dir Wind Speed Gust Speed Precip Events Conditions
12:15 AM 55.4 °F 55.4 °F 100% 30.20 in 10.0 mi SSE 3.5 mph - N/A   Clear
12:35 AM 53.6 °F 53.6 °F 100% 30.19 in 10.0 mi Calm Calm - N/A   Clear
12:55 AM 53.6 °F 53.6 °F 100% 30.20 in 8.0 mi Calm Calm - N/A   Clear
1:15 AM 53.6 °F 53.6 °F 100% 30.20 in 7.0 mi Calm Calm - N/A   Clear
1:35 AM 50.0 °F 50.0 °F 100% 30.20 in 2.5 mi Calm Calm - N/A   Clear
1:55 AM 50.0 °F 50.0 °F 100% 30.20 in 2.0 mi Calm Calm - N/A   Clear
2:15 AM 48.2 °F 48.2 °F 100% 30.20 in 5.0 mi Calm Calm - N/A   Clear
2:35 AM 46.4 °F 46.4 °F 100% 30.20 in 5.0 mi Calm Calm - N/A   Clear
2:55 AM 48.2 °F 48.2 °F 100% 30.20 in 2.0 mi Calm Calm - N/A   Clear
3:15 AM 46.4 °F 46.4 °F 100% 30.21 in 5.0 mi Calm Calm - N/A   Clear
3:35 AM 46.4 °F 46.4 °F 100% 30.21 in 0.2 mi Calm Calm - N/A Fog Fog
3:55 AM 46.4 °F 46.4 °F 100% 30.21 in 0.2 mi Calm Calm - N/A Fog Fog
4:15 AM 46.4 °F 46.4 °F 100% 30.22 in 0.8 mi Calm Calm - N/A   Mist
4:35 AM 46.4 °F 46.4 °F 100% 30.22 in 0.2 mi Calm Calm - N/A Fog Fog
4:55 AM 46.4 °F 46.4 °F 100% 30.23 in 0.2 mi Calm Calm - N/A Fog Fog
5:15 AM 46.4 °F 46.4 °F 100% 30.24 in 0.8 mi Calm Calm - N/A   Mist
5:35 AM 44.6 °F 44.6 °F 100% 30.25 in 0.2 mi Calm Calm - N/A Fog Fog
5:55 AM 46.4 °F 46.4 °F 100% 30.25 in 0.2 mi Calm Calm - N/A Fog Fog
6:15 AM 46.4 °F 46.4 °F 100% 30.26 in 3.0 mi Calm Calm - N/A   Overcast
6:35 AM 48.2 °F 48.2 °F 100% 30.27 in 5.0 mi Calm Calm - N/A   Overcast
6:55 AM 48.2 °F 48.2 °F 100% 30.27 in 7.0 mi Calm Calm - N/A   Overcast
7:15 AM 50.0 °F 50.0 °F 100% 30.28 in 7.0 mi Calm Calm - N/A   Overcast
7:35 AM 50.0 °F 50.0 °F 100% 30.29 in 6.0 mi Calm Calm - N/A   Overcast
7:55 AM 50.0 °F 50.0 °F 100% 30.30 in 6.0 mi Calm Calm - N/A   Overcast
8:15 AM 53.6 °F 53.6 °F 100% 30.31 in 7.0 mi Calm Calm - N/A   Overcast
8:35 AM 53.6 °F 53.6 °F 100% 30.31 in 6.0 mi Calm Calm - N/A   Overcast
8:55 AM 55.4 °F 55.4 °F 100% 30.32 in 8.0 mi ESE 4.6 mph - N/A   Overcast
9:15 AM 57.2 °F 57.2 °F 100% 30.32 in 10.0 mi SE 5.8 mph - N/A   Scattered Clouds
9:35 AM 59.0 °F 59.0 °F 100% 30.33 in 10.0 mi SE 5.8 mph - N/A   Mostly Cloudy
9:55 AM 59.0 °F 59.0 °F 100% 30.33 in 10.0 mi SSE 8.1 mph - N/A   Mostly Cloudy
10:15 AM 59.0 °F 59.0 °F 100% 30.33 in 10.0 mi SE 9.2 mph - N/A   Mostly Cloudy
10:35 AM 59.0 °F 59.0 °F 100% 30.33 in 10.0 mi SE 6.9 mph - N/A   Overcast
10:55 AM 59.0 °F 59.0 °F 100% 30.33 in 10.0 mi SE 6.9 mph - N/A   Overcast
11:15 AM 60.8 °F 59.0 °F 94% 30.33 in 10.0 mi SSE 6.9 mph - N/A   Mostly Cloudy
11:35 AM 62.6 °F 59.0 °F 88% 30.32 in 10.0 mi South 6.9 mph - N/A   Scattered Clouds
11:55 AM 62.6 °F 59.0 °F 88% 30.31 in 10.0 mi SE 6.9 mph - N/A   Scattered Clouds
12:15 PM 64.4 °F 59.0 °F 83% 30.30 in 10.0 mi South 9.2 mph - N/A   Unknown
12:35 PM 64.4 °F 59.0 °F 83% 30.29 in 10.0 mi SSE 6.9 mph - N/A   Partly Cloudy
12:55 PM 64.4 °F 59.0 °F 83% 30.28 in 10.0 mi SSE 4.6 mph - N/A   Scattered Clouds
1:15 PM 66.2 °F 57.2 °F 73% 30.27 in 10.0 mi South 6.9 mph - N/A   Unknown
1:35 PM 66.2 °F 59.0 °F 78% 30.27 in 10.0 mi SE 9.2 mph - N/A   Unknown
1:55 PM 66.2 °F 59.0 °F 78% 30.26 in 10.0 mi SE 6.9 mph - N/A   Unknown
2:15 PM 66.2 °F 57.2 °F 73% 30.25 in 10.0 mi SE 5.8 mph - N/A   Unknown
2:35 PM 66.2 °F 57.2 °F 73% 30.25 in 10.0 mi ESE 8.1 mph - N/A   Unknown
2:55 PM 66.2 °F 57.2 °F 73% 30.25 in 10.0 mi SE 6.9 mph - N/A   Unknown
3:15 PM 68.0 °F 57.2 °F 68% 30.24 in 10.0 mi SE 9.2 mph - N/A   Unknown
3:35 PM 68.0 °F 55.4 °F 64% 30.24 in 10.0 mi South 11.5 mph - N/A   Clear
3:55 PM 68.0 °F 55.4 °F 64% 30.24 in 10.0 mi SE 9.2 mph - N/A   Clear
4:15 PM 68.0 °F 55.4 °F 64% 30.24 in 10.0 mi SSE 8.1 mph - N/A   Clear
4:35 PM 68.0 °F 55.4 °F 64% 30.24 in 10.0 mi SSE 5.8 mph - N/A   Clear
4:55 PM 68.0 °F 55.4 °F 64% 30.24 in 10.0 mi SSE 6.9 mph - N/A   Clear
5:15 PM 66.2 °F 55.4 °F 68% 30.24 in 10.0 mi SSE 6.9 mph - N/A   Clear
5:35 PM 64.4 °F 55.4 °F 73% 30.24 in 10.0 mi ESE 5.8 mph - N/A   Partly Cloudy
5:55 PM 64.4 °F 57.2 °F 77% 30.24 in 10.0 mi ESE 4.6 mph - N/A   Mostly Cloudy
6:15 PM 62.6 °F 57.2 °F 82% 30.25 in 10.0 mi ESE 4.6 mph - N/A   Overcast
6:35 PM 62.6 °F 57.2 °F 82% 30.25 in 10.0 mi ESE 3.5 mph - N/A   Overcast
6:55 PM 60.8 °F 57.2 °F 88% 30.26 in 10.0 mi ESE 4.6 mph - N/A   Mostly Cloudy
7:15 PM 59.0 °F 55.4 °F 88% 30.26 in 10.0 mi East 5.8 mph - N/A   Scattered Clouds
7:35 PM 59.0 °F 55.4 °F 88% 30.27 in 10.0 mi East 5.8 mph - N/A   Clear
7:55 PM 57.2 °F 55.4 °F 94% 30.27 in 10.0 mi ESE 5.8 mph - N/A   Clear
8:15 PM 57.2 °F 57.2 °F 100% 30.27 in 10.0 mi ESE 6.9 mph - N/A   Clear
8:35 PM 57.2 °F 55.4 °F 94% 30.28 in 10.0 mi ESE 6.9 mph - N/A   Clear
8:55 PM 57.2 °F 55.4 °F 94% 30.28 in 10.0 mi ESE 5.8 mph - N/A   Clear
9:15 PM 57.2 °F 55.4 °F 94% 30.28 in 10.0 mi ESE 3.5 mph - N/A   Clear
9:35 PM 57.2 °F 55.4 °F 94% 30.28 in 10.0 mi South 3.5 mph - N/A   Clear
9:55 PM 55.4 °F 55.4 °F 100% 30.28 in 10.0 mi SSE 4.6 mph - N/A   Clear
10:15 PM 55.4 °F 55.4 °F 100% 30.28 in 10.0 mi SE 3.5 mph - N/A   Clear
10:35 PM 53.6 °F 53.6 °F 100% 30.28 in 10.0 mi SE 3.5 mph - N/A   Clear
10:55 PM 53.6 °F 53.6 °F 100% 30.29 in 10.0 mi SSE 4.6 mph - N/A   Clear
11:15 PM 53.6 °F 53.6 °F 100% 30.28 in 9.0 mi Calm Calm - N/A   Clear
11:35 PM 51.8 °F 51.8 °F 100% 30.27 in 7.0 mi Calm Calm - N/A   Clear
11:55 PM 50.0 °F 50.0 °F 100% 30.27 in 6.0 mi East 3.5 mph - N/A   Clear